Location: Leimbach
(47.5611°N, 9.1881°E)
Time: 17:50:25
(UTC+00:00)

ADEOS II - Pass Details

Date: 07 June 2020
Orbit: 800 x 800 km, 98.5° (Epoch: 09 July)

Event Time Altitude Azimuth Distance (km) Brightness Sun altitude
Rises 01:02:42 0° 22° (NNE) 3,320 7.2 -16.1°
Reaches altitude 10° 01:05:18 10° 32° (NNE) 2,385 5.9 -15.9°
Maximum altitude 01:09:59 32° 95° (E) 1,350 3.5 -15.6°
Drops below altitude 10° 01:14:39 10° 158° (SSE) 2,369 4.2 -15.2°
Enters shadow 01:14:39 10° 158° (SSE) 2,372 4.2 -15.2°
